Weather History for Washington, NC

Change the Weather History Date:

Friday, January 27, 2012

  Actual Average (KEWN) Record (KEWN)
Temperature  
Mean Temperature 63 °F 45 °F  
Max Temperature 69 °F 55 °F 79 °F (1974)
Min Temperature 53 °F 34 °F 15 °F (1985)
Degree Days  
Heating Degree Days 2 20  
Month to date heating degree days 564  
Since 1 July heating degree days 1558  
Cooling Degree Days 0 0  
Month to date cooling degree days 0  
Year to date cooling degree days 0  
Growing Degree Days 13 (Base 50)    
Moisture  
Dew Point 52 °F    
Average Humidity 66    
Maximum Humidity 83    
Minimum Humidity 40    
Precipitation  
Precipitation 0.47 in 0.12 in 0.92 in (1983)
Month to date precipitation 3.49  
Year to date precipitation 3.49  
Snow  
Snow 0.00 in - - ()
Month to date snowfall  
Since 1 July snowfall  
Snow Depth -    
Sea Level Pressure  
Sea Level Pressure 29.75 in    
Wind  
Wind Speed 10 mph (SW)    
Max Wind Speed 34 mph    
Max Gust Speed 50 mph    
Visibility 10 miles    
Events Rain    
T = Trace of Precipitation, MM = Missing Value Source: NWS Daily Summary

Daily Weather History Graph

Daily Weather History Graph

Search for Another Location

Airport:

Trip Planner

Search our weather history database for the weather conditions in past years. The results will help you decide how hot, cold, wet, or windy it might be!

Date:

Astronomy

Jan. 27, 2012 Rise Set
Actual Time 7:11 AM EST 5:30 PM EST
Civil Twilight 6:44 AM EST 5:57 PM EST
Nautical Twilight 6:14 AM EST 6:28 PM EST
Astronomical Twilight 5:43 AM EST 6:58 PM EST
Moon 9:17 AM EST (1/27) 10:06 PM EST (1/27)
Length of Visible Light 11h 12m
Length of Day
10h 18m
Waxing Crescent, 19% of the Moon is Illuminated
Jan 27
Waxing Crescent
Jan 30
First Quarter
Feb 7
Full
Feb 14
Last Quarter
Feb 21
New

Hourly Weather History & Observations

Time (EST) Temp. Dew Point Humidity Pressure Visibility Wind Dir Wind Speed Gust Speed Precip Events Conditions
12:35 AM 62.6 °F 57.2 °F 82% 29.84 in 10.0 mi South 5.8 mph - N/A   Scattered Clouds
12:55 AM 62.6 °F 55.4 °F 77% 29.83 in 10.0 mi South 8.1 mph - N/A   Clear
1:15 AM 62.6 °F 55.4 °F 77% 29.83 in 10.0 mi SSE 8.1 mph - N/A   Clear
1:35 AM 62.6 °F 57.2 °F 82% 29.82 in 10.0 mi South 6.9 mph - N/A   Clear
1:55 AM 62.6 °F 55.4 °F 77% 29.81 in 10.0 mi SSE 9.2 mph - N/A   Scattered Clouds
2:15 AM 62.6 °F 57.2 °F 82% 29.80 in 10.0 mi South 9.2 mph - N/A   Scattered Clouds
2:35 AM 64.4 °F 59.0 °F 83% 29.78 in 10.0 mi South 9.2 mph 16.1 mph N/A   Mostly Cloudy
2:55 AM 64.4 °F 59.0 °F 83% 29.77 in 10.0 mi South 11.5 mph 16.1 mph N/A   Mostly Cloudy
3:15 AM 66.2 °F 59.0 °F 78% 29.76 in 10.0 mi South 10.4 mph 18.4 mph N/A   Scattered Clouds
3:35 AM 68.0 °F 60.8 °F 78% 29.74 in 10.0 mi South 9.2 mph 17.3 mph N/A   Mostly Cloudy
3:55 AM 68.0 °F 60.8 °F 78% 29.73 in 10.0 mi South 10.4 mph 16.1 mph N/A Rain Light Rain
4:15 AM 66.2 °F 59.0 °F 78% 29.73 in 4.0 mi SW 10.4 mph 16.1 mph 0.05 in Rain Rain
4:35 AM 64.4 °F 59.0 °F 83% 29.72 in 5.0 mi SW 15.0 mph 21.9 mph 0.30 in Rain Heavy Rain
5:15 AM 64.4 °F 59.0 °F 83% 29.70 in 10.0 mi South 10.4 mph 17.3 mph N/A   Scattered Clouds
5:35 AM 66.2 °F 59.0 °F 78% 29.69 in 10.0 mi South 9.2 mph 16.1 mph N/A   Scattered Clouds
5:55 AM 68.0 °F 60.8 °F 78% 29.68 in 10.0 mi SSW 13.8 mph 24.2 mph N/A   Scattered Clouds
6:15 AM 68.0 °F 60.8 °F 78% 29.68 in 10.0 mi SSW 11.5 mph 19.6 mph N/A   Scattered Clouds
6:35 AM 68.0 °F 60.8 °F 78% 29.68 in 10.0 mi SSW 15.0 mph 25.3 mph N/A   Mostly Cloudy
6:55 AM 68.0 °F 60.8 °F 78% 29.69 in 10.0 mi SSW 13.8 mph 19.6 mph N/A   Mostly Cloudy
7:35 AM 68.0 °F 60.8 °F 78% 29.68 in 10.0 mi South 10.4 mph 19.6 mph N/A   Mostly Cloudy
7:55 AM 68.0 °F 60.8 °F 78% 29.68 in 10.0 mi South 12.7 mph 17.3 mph N/A   Scattered Clouds
8:15 AM 68.0 °F 60.8 °F 78% 29.66 in 10.0 mi SSW 10.4 mph 18.4 mph N/A Rain Light Rain
8:35 AM 68.0 °F 60.8 °F 78% 29.66 in 10.0 mi SSW 13.8 mph 20.7 mph N/A Rain Rain
8:55 AM 68.0 °F 60.8 °F 78% 29.65 in 10.0 mi SSW 13.8 mph 24.2 mph N/A   Mostly Cloudy
9:15 AM 68.0 °F 60.8 °F 78% 29.65 in 10.0 mi SW 16.1 mph 21.9 mph N/A   Mostly Cloudy
9:35 AM 69.8 °F 60.8 °F 73% 29.64 in 10.0 mi SSW 13.8 mph 26.5 mph N/A   Mostly Cloudy
9:55 AM 66.2 °F 59.0 °F 78% 29.67 in 3.0 mi SW 34.5 mph 49.5 mph 0.08 in Rain Heavy Rain
10:15 AM 60.8 °F 53.6 °F 77% 29.68 in 7.0 mi SW 11.5 mph - 0.03 in Rain Rain
10:35 AM 60.8 °F 53.6 °F 77% 29.69 in 7.0 mi WSW 15.0 mph 23.0 mph 0.06 in Rain Rain
10:55 AM 60.8 °F 53.6 °F 77% 29.70 in 7.0 mi SW 17.3 mph 25.3 mph 0.09 in Rain Light Rain
11:15 AM 60.8 °F 53.6 °F 77% 29.69 in 10.0 mi SW 13.8 mph 21.9 mph N/A   Light Drizzle
11:35 AM 60.8 °F 53.6 °F 77% 29.68 in 10.0 mi SSW 10.4 mph - N/A   Light Drizzle
12:15 PM 60.8 °F 53.6 °F 77% 29.65 in 10.0 mi SSW 10.4 mph - N/A   Mostly Cloudy
12:55 PM 62.6 °F 55.4 °F 77% 29.64 in 10.0 mi SW 11.5 mph - N/A   Scattered Clouds
1:15 PM 62.6 °F 55.4 °F 77% 29.64 in 10.0 mi SW 12.7 mph 17.3 mph N/A   Scattered Clouds
1:35 PM 64.4 °F 57.2 °F 77% 29.63 in 10.0 mi SW 16.1 mph 20.7 mph N/A   Scattered Clouds
1:55 PM 66.2 °F 59.0 °F 78% 29.63 in 10.0 mi SW 13.8 mph 20.7 mph N/A   Scattered Clouds
2:15 PM 68.0 °F 59.0 °F 73% 29.63 in 10.0 mi WSW 16.1 mph 19.6 mph N/A   Clear
2:35 PM 69.8 °F 57.2 °F 64% 29.64 in 10.0 mi WNW 11.5 mph 21.9 mph N/A   Scattered Clouds
2:55 PM 68.0 °F 46.4 °F 46% 29.66 in 10.0 mi West 16.1 mph 26.5 mph N/A   Scattered Clouds
3:15 PM 69.8 °F 46.4 °F 43% 29.67 in 10.0 mi WNW 11.5 mph 19.6 mph N/A   Clear
3:35 PM 69.8 °F 44.6 °F 40% 29.68 in 10.0 mi West 13.8 mph 24.2 mph N/A   Clear
3:55 PM 68.0 °F 42.8 °F 40% 29.69 in 10.0 mi West 12.7 mph 24.2 mph N/A   Clear
4:15 PM 68.0 °F 44.6 °F 43% 29.71 in 10.0 mi West 8.1 mph 21.9 mph N/A   Clear
4:35 PM 68.0 °F 46.4 °F 46% 29.73 in 10.0 mi West 6.9 mph 19.6 mph N/A   Scattered Clouds
4:55 PM 68.0 °F 44.6 °F 43% 29.74 in 10.0 mi WNW 9.2 mph 18.4 mph N/A   Scattered Clouds
5:15 PM 64.4 °F 42.8 °F 45% 29.75 in 10.0 mi WNW 9.2 mph 17.3 mph N/A   Clear
5:35 PM 64.4 °F 42.8 °F 45% 29.77 in 10.0 mi WNW 4.6 mph - N/A   Clear
5:55 PM 62.6 °F 41.0 °F 45% 29.79 in 10.0 mi WNW 6.9 mph - N/A   Clear
6:15 PM 62.6 °F 41.0 °F 45% 29.81 in 10.0 mi WNW 6.9 mph - N/A   Clear
6:35 PM 62.6 °F 39.2 °F 42% 29.83 in 10.0 mi WNW 4.6 mph - N/A   Clear
6:55 PM 62.6 °F 41.0 °F 45% 29.86 in 10.0 mi NW 4.6 mph - N/A   Clear
7:15 PM 60.8 °F 39.2 °F 45% 29.87 in 10.0 mi WNW 4.6 mph - N/A   Clear
7:35 PM 60.8 °F 39.2 °F 45% 29.89 in 10.0 mi WNW 3.5 mph - N/A   Clear
7:55 PM 59.0 °F 41.0 °F 51% 29.91 in 10.0 mi WNW 5.8 mph - N/A   Clear
8:15 PM 57.2 °F 39.2 °F 51% 29.92 in 10.0 mi NW 4.6 mph - N/A   Clear
8:35 PM 57.2 °F 41.0 °F 55% 29.92 in 10.0 mi NNW 4.6 mph - N/A   Clear
8:55 PM 57.2 °F 39.2 °F 51% 29.93 in 10.0 mi NW 5.8 mph - N/A   Clear
9:15 PM 57.2 °F 37.4 °F 48% 29.95 in 10.0 mi NW 5.8 mph - N/A   Clear
9:35 PM 57.2 °F 37.4 °F 48% 29.96 in 10.0 mi WNW 4.6 mph - N/A   Clear
9:55 PM 53.6 °F 35.6 °F 51% 29.97 in 10.0 mi NW 4.6 mph - N/A   Clear
10:15 PM 53.6 °F 35.6 °F 51% 29.98 in 10.0 mi NNW 3.5 mph - N/A   Clear
10:35 PM 51.8 °F 35.6 °F 54% 29.99 in 10.0 mi NNW 5.8 mph - N/A   Clear
10:55 PM 51.8 °F 37.4 °F 58% 30.01 in 10.0 mi NNW 5.8 mph - N/A   Clear
11:15 PM 51.8 °F 37.4 °F 58% 30.01 in 10.0 mi NW 4.6 mph - N/A   Clear
11:35 PM 51.8 °F 37.4 °F 58% 30.02 in 10.0 mi NW 3.5 mph - N/A   Clear
11:55 PM 50.0 °F 37.4 °F 62% 30.03 in 10.0 mi NW 3.5 mph - N/A   Clear